Regional Weather Roundup
Issued by NWS

Home | Current Version | Previous Version | Text Only | Print | Product List | Glossary On
Versions: 1 2 3 4 5 6 7 8 9 10 11 12 13 14 15 16 17 18 19 20 21 22 23 24 25 26 27 28 29 30 31 32 33 34 35 36 37 38 39 40 41 42 43 44 45 46 47 48 49 50
000
ASUS43 KLMK 070102
RWRKY
KENTUCKY REGIONAL WEATHER ROUNDUP
NATIONAL WEATHER SERVICE LOUISVILLE KY
900 PM EDT FRI MAY 06 2016

NOTE "FAIR" INDICATES FEW OR NO CLOUDS BELOW 12,000 FEET
WITH NO SIGNIFICANT WEATHER AND/OR OBSTRUCTIONS TO VISIBILITY.

KYZ001>023-026-027-061>063-070>075-070200-
WESTERN AND SOUTH CENTRAL KENTUCKY

CITY           SKY/WX    TMP DP  RH WIND       PRES   REMARKS
PADUCAH        CLEAR     65  46  50 SW3       29.95F
HENDERSON      MOCLDY    66  48  52 CALM      29.93F
OWENSBORO      CLEAR     66  47  50 CALM      29.94F
HOPKINSVILLE   CLEAR     65  46  50 W3        29.96S
BOWLING GREEN  CLEAR     65  43  44 CALM      29.95S
GLASGOW        NOT AVBL
$$

KYZ024-025-028>034-038-045-046-053-070200-
NORTH CENTRAL KENTUCKY

CITY           SKY/WX    TMP DP  RH WIND       PRES   REMARKS
LOUISVILLE/SDF PTCLDY    66  42  41 W8        29.91S
LOUISVILLE/LOU CLEAR     65  41  41 W5        29.91S
FORT KNOX      CLEAR     58  44  59 W5        29.91S
$$

KYZ035>037-039>044-047>052-055>060-089>105-070200-
NORTHEAST KENTUCKY

CITY           SKY/WX    TMP DP  RH WIND       PRES   REMARKS
LEXINGTON      CLEAR     60  39  45 W5        29.91R
COVINGTON      PTCLDY    61  40  45 NW6       29.89R
FRANKFORT      CLEAR     58  43  57 CALM      29.90R
$$

KYZ054-064>069-076>088-106>120-070200-
SOUTHEAST KENTUCKY

CITY           SKY/WX    TMP DP  RH WIND       PRES   REMARKS
JACKSON        PTCLDY    61  39  44 NW5       29.89R
LONDON         PTCLDY    60  43  53 W3        29.92R
SOMERSET       NOT AVBL
MIDDLESBORO    NOT AVBL
MONTICELLO     PTCLDY    56  46  69 NW5       29.95R
$$




USA.gov is the U.S. government's official web portal to all federal, state and local government web resources and services.